Regional Weather Roundup
Issued by NWS

Home | Current Version | Previous Version | Text Only | Print | Product List | Glossary On
Versions: 1 2 3 4 5 6 7 8 9 10 11 12 13 14 15 16 17 18 19 20 21 22 23 24 25 26 27 28 29 30 31 32 33 34 35 36 37 38 39 40 41 42 43 44 45 46 47 48 49 50
000
ASUS43 KBIS 201610
RWRND
NORTH DAKOTA REGIONAL WEATHER ROUNDUP
NATIONAL WEATHER SERVICE EASTERN NORTH DAKOTA/GRAND FORKS ND
1100 AM CDT SUN MAY 20 2018

  NOTE: "FAIR" INDICATES FEW OR NO CLOUDS BELOW 12,000 FEET WITH NO
  SIGNIFICANT WEATHER AND/OR OBSTRUCTIONS TO VISIBILITY.

NDZ001>003-009>011-017-201700-
...NORTHWEST NORTH DAKOTA...

CITY           SKY/WX    TMP DP  RH WIND       PRES   REMARKS
WILLISTON      FAIR      63  34  33 S13       30.22S
MINOT          FAIR      67  29  24 S8        30.24S
MINOT AFB      FAIR      66  30  26 E3        30.23S
$$

NDZ018>021-031>035-040>046-201700-
...SOUTHWEST NORTH DAKOTA...

CITY           SKY/WX    TMP DP  RH WIND       PRES   REMARKS
BISMARCK       FAIR      62  38  40 S6        30.29S
DICKINSON      FAIR      59  33  37 SE16G22   30.24F
GARRISON         N/A     60  36  40 S9        30.26S
HETTINGER      FAIR      57  37  47 S14       30.27F
$$

NDZ004>008-012>016-024-026-027-054-201700-
...NORTHEAST NORTH DAKOTA...

CITY           SKY/WX    TMP DP  RH WIND       PRES   REMARKS
GRAND FORKS    FAIR      65  42  43 VRB3      30.25F
GRAND FORKS AF FAIR      68  39  35 CALM      30.24F
DEVILS LAKE    FAIR      63  38  39 SW10      30.26F
$$

NDZ022-023-025-028>030-036>039-047>053-201700-
...SOUTHEAST NORTH DAKOTA...

CITY           SKY/WX    TMP DP  RH WIND       PRES   REMARKS
JAMESTOWN      FAIR      62  36  37 VRB3      30.28S
FARGO          FAIR      62  36  37 S5        30.28F
WAHPETON       FAIR      61  30  31 E5        30.28F
$$



USA.gov is the U.S. government's official web portal to all federal, state and local government web resources and services.